Meteo Giornale » Osservazioni meteo Montenegro » Tivat

ore: 20:00 - Osservazioni Meteo Tivat
Lat. 42° 24' N Lon. 18° 44' E Alt. 5 metri s.l.m.

sereno

28 °C

Sereno

Temp. 24 Ore

22 °C

33 °C

Nord

3.7 Km/h

Dew point 23 °C

Umidità 74 %

Visibilità  10 Km

Il sole sorge alle ore 06:10

Il sole tramonta alle ore 19:19

Data e Ora Cielo e Fenomeni T °C DP °C Um. % Pres. hPa Vis. km Vento km/h
Oggi h: 20:00 sereno Sereno 28 23 74 1014 10 N 3.7
Oggi h: 19:30 sereno Sereno 29 23 70 1014 10 N 5.5
Oggi h: 19:00 sereno Sereno 30 22 62 1014 10 N 3.7
Oggi h: 18:30 sereno Sereno 31 22 58 1014 10 N 5.5
Oggi h: 18:00 sereno Sereno 32 20 49 1014 10 O/SO 9.3
Oggi h: 17:30 poco_nuvoloso Poco Nuvoloso 32 21 52 1014 10 SO 7.4
Oggi h: 17:00 poco_nuvoloso Poco Nuvoloso 32 22 55 1014 10 SO 9.3
Oggi h: 16:30 poco_nuvoloso Poco Nuvoloso 32 22 55 1014 10 SO 11.1
Oggi h: 16:00 poco_nuvoloso Poco Nuvoloso 33 21 49 1014 10 O/SO 11.1
Oggi h: 15:30 poco_nuvoloso Poco Nuvoloso 33 21 49 1014 10 S/SO 11.1
Oggi h: 15:00 poco_nuvoloso Poco Nuvoloso 33 22 52 1014 10 S/SO 13
Oggi h: 14:30 poco_nuvoloso Poco Nuvoloso 33 22 52 1015 10 S/SO 11.1
Oggi h: 14:00 poco_nuvoloso Poco Nuvoloso 33 24 59 1015 10 N 11.1
Oggi h: 13:30 poco_nuvoloso Poco Nuvoloso 32 24 62 1015 10 S/SO 14.8
Oggi h: 13:00 poco_nuvoloso Poco Nuvoloso 33 23 55 1015 10 S/SO 13
Oggi h: 12:30 poco_nuvoloso Poco Nuvoloso 32 22 55 1015 10 SO 11.1
Oggi h: 12:00 poco_nuvoloso Poco Nuvoloso 32 22 55 1015 10 SO 11.1
Oggi h: 11:30 poco_nuvoloso Poco Nuvoloso 31 23 62 1016 10 O/SO 13
Oggi h: 11:00 poco_nuvoloso Poco Nuvoloso 31 23 62 1015 10 O 7.4
Oggi h: 10:30 poco_nuvoloso Poco Nuvoloso 30 22 62 1015 10 N 5.5
Oggi h: 10:00 poco_nuvoloso Poco Nuvoloso 30 23 66 1015 10 NO 7.4
Oggi h: 09:30 poco_nuvoloso Poco Nuvoloso 29 24 74 1015 10 N 3.7
Oggi h: 09:00 poco_nuvoloso Poco Nuvoloso 28 23 74 1015 10 N 1.8
Oggi h: 08:30 poco_nuvoloso Poco Nuvoloso 27 21 69 1015 10 N 1.8
Oggi h: 08:00 sereno Sereno 25 21 78 1015 10 N 1.8
Oggi h: 07:30 sereno Sereno 23 21 88 1015 10 N 0
Oggi h: 07:00 sereno Sereno 22 20 88 1015 10 N 0
Oggi h: 06:30 sereno Sereno 22 21 94 1014 10 N 3.7
Oggi h: 06:00 sereno Sereno 23 20 83 1014 10 N 1.8
Oggi h: 05:30 sereno Sereno 22 21 94 1014 10 N 0
Oggi h: 05:00 sereno Sereno 22 21 94 1014 10 N 5.5
Oggi h: 04:30 sereno Sereno 22 21 94 1014 10 N 0
Oggi h: 04:00 sereno Sereno 23 21 88 1014 10 N 0
Oggi h: 03:30 sereno Sereno 23 21 88 1015 10 N 3.7
Oggi h: 03:00 sereno Sereno 24 22 88 1015 10 N 0
Oggi h: 02:30 nuvoloso Nuvoloso 24 22 88 1015 10 N 1.8
Oggi h: 02:00 molto_nuvoloso Molto Nuvoloso 24 22 88 1015 10 N 0
Oggi h: 01:30 molto_nuvoloso Molto Nuvoloso 24 21 83 1015 10 N 0
Oggi h: 01:00 poco_nuvoloso Poco Nuvoloso 24 22 88 1014 10 N 5.5
Oggi h: 00:30 nuvoloso Nuvoloso 24 21 83 1014 10 N 1.8
Oggi h: 00:00 sereno Sereno 24 21 83 1014 10 N 0
Ieri h: 23:30 sereno Sereno 25 21 78 1014 10 N 0
Ieri h: 23:00 sereno Sereno 25 21 78 1014 10 N 0
Ieri h: 22:30 sereno Sereno 25 21 78 1013 10 N 5.5
Ieri h: 22:00 sereno Sereno 26 22 78 1013 10 N 0
Ieri h: 21:30 sereno Sereno 26 21 73 1013 10 N 0
Ieri h: 21:00 sereno Sereno 27 22 74 1013 10 N 3.7